TimeEST,TemperatureF,Dew PointF,Humidity,Sea Level PressureIn,VisibilityMPH,Wind Direction,Wind SpeedMPH,Gust SpeedMPH,PrecipitationIn,Events,Conditions,WindDirDegrees,DateUTC
12:53 AM,37.9,28.9,70,30.27,10.0,Calm,Calm,-,N/A,,Clear,0,2013-02-10 05:53:00
1:53 AM,37.9,30.0,73,30.26,10.0,Calm,Calm,-,N/A,,Clear,0,2013-02-10 06:53:00
2:53 AM,39.0,30.0,70,30.26,10.0,Calm,Calm,-,N/A,,Clear,0,2013-02-10 07:53:00
3:53 AM,37.9,30.0,73,30.25,10.0,Calm,Calm,-,N/A,,Clear,0,2013-02-10 08:53:00
4:53 AM,39.0,30.9,73,30.26,10.0,Calm,Calm,-,N/A,,Clear,0,2013-02-10 09:53:00
5:53 AM,37.9,30.9,76,30.26,10.0,Calm,Calm,-,N/A,,Clear,0,2013-02-10 10:53:00
6:53 AM,37.9,32.0,79,30.27,10.0,Calm,Calm,-,N/A,,Clear,0,2013-02-10 11:53:00
7:53 AM,37.9,32.0,79,30.27,10.0,Calm,Calm,-,N/A,,Clear,0,2013-02-10 12:53:00
8:53 AM,39.9,32.0,73,30.28,10.0,Calm,Calm,-,N/A,,Clear,0,2013-02-10 13:53:00
9:53 AM,44.1,27.0,51,30.27,10.0,Calm,Calm,-,N/A,,Clear,0,2013-02-10 14:53:00
10:53 AM,48.9,28.0,44,30.25,10.0,Calm,Calm,-,N/A,,Clear,0,2013-02-10 15:53:00
11:53 AM,53.1,26.1,35,30.21,10.0,Calm,Calm,-,N/A,,Partly Cloudy,0,2013-02-10 16:53:00
12:53 PM,59.0,24.1,26,30.14,10.0,South,10.4,-,N/A,,Clear,190,2013-02-10 17:53:00
1:53 PM,61.0,23.0,23,30.10,10.0,SSW,10.4,-,N/A,,Clear,200,2013-02-10 18:53:00
2:53 PM,60.1,26.1,27,30.09,10.0,Variable,5.8,-,N/A,,Mostly Cloudy,0,2013-02-10 19:53:00
3:53 PM,52.0,37.9,59,30.09,8.0,Calm,Calm,-,0.01,Rain,Light Rain,0,2013-02-10 20:53:00
4:53 PM,50.0,46.0,86,30.11,4.0,Calm,Calm,-,0.06,Rain,Rain,0,2013-02-10 21:53:00
5:38 PM,48.2,44.6,87,30.10,2.5,Calm,Calm,-,0.08,Rain,Rain,0,2013-02-10 22:38:00
5:53 PM,48.0,44.1,86,30.11,1.8,Calm,Calm,-,0.13,Rain,Rain,0,2013-02-10 22:53:00
6:01 PM,46.4,44.6,93,30.08,3.0,Calm,Calm,-,0.02,Rain,Rain,0,2013-02-10 23:01:00
6:53 PM,46.9,45.0,93,30.09,9.0,Calm,Calm,-,0.10,Rain,Light Rain,0,2013-02-10 23:53:00
7:53 PM,46.9,45.0,93,30.11,10.0,West,3.5,-,0.00,,Overcast,270,2013-02-11 00:53:00
8:34 PM,46.4,44.6,93,30.05,10.0,Calm,Calm,-,N/A,,Mostly Cloudy,0,2013-02-11 01:34:00
8:53 PM,46.9,45.0,93,30.06,10.0,Calm,Calm,-,N/A,,Overcast,0,2013-02-11 01:53:00
9:53 PM,48.0,45.0,89,30.04,10.0,Calm,Calm,-,N/A,,Overcast,0,2013-02-11 02:53:00
10:53 PM,48.0,45.0,89,30.01,8.0,Calm,Calm,-,N/A,,Scattered Clouds,0,2013-02-11 03:53:00
11:53 PM,48.0,46.0,93,30.01,8.0,South,3.5,-,N/A,,Overcast,190,2013-02-11 04:53:00